sat.trackr.live / text

‹ back to catalog

STARLINK-5418

NORAD 54852 · 2022-177AJ

PAYLOAD ACTIVE UNKNOWN

§ Identity

Operator
Country
US
Launch date
2022-12-28
Launch site
AFETR
Launch vehicle
Mass (kg)
RCS (m²)

Purposes: comms

External: N2YO · Heavens-Above · Gunter

§ Orbital elements

Epoch: 2026-09-20T22:12:39.578112Z

Period
94.27 min
Inclination
43.0031°
Eccentricity
0.0001197
Mean motion
15.27568919 rev/d
Perigee alt
482.3 km
Apogee alt
483.9 km
Semi-major
6,861.2 km
B*
2.9439e-5
RAAN
98.6330°
Arg perigee
253.5662°
Mean anomaly
106.5058°
Rev number
20,695

§ Raw data

STARLINK-54181 54852U 22177AJ  26263.92545808  .00000548  00000+0  29439-4 0  99902 54852  43.0031  98.6330 0001197 253.5662 106.5058 15.27568919206953

JSON: /api/v1/satellites/54852 · /tle

For live sub-satellite position, see the globe view (requires WebGL).

§ Visibility from observer

Set your observer location to see the next 7 days of passes ≥ 10°. The values pass through the URL so the page stays shareable.

No JS? Fill the form by hand. The geolocation button needs JavaScript.